Flag for Kazakhstan Weather past 2 weeks in Astana, Kazakhstan

Now
79 °F

Passing clouds.


Feels Like: 80 °F
Forecast: 65 / 92 °F
Wind: 6 mph from East

Location: Astana

Current Time: Aug 20, 2014 at 11:07:23 AM

Latest Report: Aug 20, 2014 at 10:30 AM


Visibility: N/A

Pressure: 30.24 "Hg

Humidity: 58%

Dew point: 63 °F

Location of AstanaLocation

Historic Weather in Astana — Graph

°F

Astana temperature yesterday

Maximum temperature yesterday: 99 °F (at 2:30 PM)
Minimum temperature yesterday: 59 °F (at 5:30 AM)
Average temperature yesterday: 81 °F

Past Weeks' High & Low Weather Summary

 TemperatureHumidityPressure
High99 °F (Aug 19, 2:30 PM)94% (Aug 8, 7:30 AM)30.21 "Hg (Aug 8, 7:30 AM)
Low43 °F (Aug 9, 5:30 AM)10% (Aug 19, 2:30 PM)29.50 "Hg (Aug 13, 4:00 AM)
Average69 °F51%29.88 "Hg
* Reported Aug 5 9:00 AM — Aug 20 9:30 AM, Astana, Weather by CustomWeather, © 2014

Note: Actual official high and low records may vary slightly from our data, if they occured in-between our weather recording intervals... More about our weather records

Advertising

Astana weather history for previous 24 hours

 ConditionsComfort  
Time TempWeatherWind HumidityBarometerVisibility
9:30 AM
Aug 20
75 °FPassing clouds.8 mph69%30.21 "HgN/A
9:00 AM73 °FSunny.8 mph74%30.21 "Hg10 mi
8:30 AM72 °FSunny.8 mph73%30.21 "Hg10 mi
8:00 AM68 °FSunny.8 mph83%30.21 "Hg10 mi
7:30 AM64 °FSunny.6 mph88%30.21 "Hg10 mi
7:00 AM61 °FSunny.6 mph94%30.21 "Hg10 mi
6:30 AM63 °FSunny.8 mph88%30.18 "Hg10 mi
6:00 AM61 °FClear.6 mph88%30.18 "Hg10 mi
5:30 AM63 °FClear.3 mph83%30.18 "Hg10 mi
5:00 AM64 °FClear.6 mph78%30.18 "Hg10 mi
4:30 AM64 °FClear.6 mph78%30.15 "Hg10 mi
4:00 AM68 °FClear.8 mph73%30.15 "Hg10 mi
3:30 AM66 °FClear.1 mph64%30.15 "Hg10 mi
3:00 AM66 °FClear.1 mph64%30.15 "Hg10 mi
2:30 AM66 °FClear.3 mph60%30.15 "Hg10 mi
2:00 AM66 °FClear.6 mph64%30.15 "Hg10 mi
1:30 AM66 °FClear.6 mph60%30.12 "Hg10 mi
1:00 AM70 °FClear.6 mph53%30.15 "Hg10 mi
12:30 AM72 °FClear.8 mph50%30.12 "Hg10 mi
12:00 AM72 °FClear.8 mph50%30.12 "Hg10 mi
11:30 PM
Aug 19
77 °FClear.8 mph42%30.12 "Hg10 mi
11:00 PM75 °FClear.6 mph36%30.12 "Hg10 mi
10:30 PM82 °FClear.6 mph28%30.09 "Hg10 mi
10:00 PM81 °FPassing clouds.3 mph28%30.09 "HgN/A
9:30 PM84 °FPassing clouds.3 mph23%30.09 "HgN/A
9:00 PM86 °FClear.6 mph22%30.07 "Hg10 mi
8:30 PM86 °FClear.6 mph25%30.07 "Hg10 mi
8:00 PM88 °FSunny.8 mph27%30.04 "Hg10 mi
7:30 PM91 °FSunny.8 mph24%30.04 "Hg10 mi
7:00 PM93 °FPassing clouds.8 mph21%30.04 "HgN/A
6:30 PM95 °FSunny.10 mph18%30.04 "Hg10 mi
6:00 PM97 °FSunny.10 mph13%30.04 "Hg10 mi
5:30 PM97 °FSunny.10 mph13%30.04 "Hg10 mi
5:00 PM97 °FSunny.13 mph13%30.04 "Hg10 mi
4:30 PM97 °FPassing clouds.13 mph13%30.04 "HgN/A
4:00 PM97 °FPassing clouds.10 mph13%30.07 "HgN/A
3:30 PM97 °FPassing clouds.10 mph13%30.07 "HgN/A
3:00 PM97 °FPassing clouds.10 mph12%30.07 "HgN/A
2:30 PM99 °FPassing clouds.15 mph10%30.07 "HgN/A
2:00 PM97 °FSunny.13 mph11%30.07 "Hg10 mi
1:30 PM97 °FPassing clouds.10 mph11%30.07 "HgN/A
1:00 PM95 °FSunny.13 mph11%30.09 "Hg10 mi
12:30 PM95 °FPassing clouds.13 mph11%30.09 "HgN/A
12:00 PM93 °FPassing clouds.10 mph11%30.09 "HgN/A
11:30 AM91 °FPassing clouds.8 mph13%30.09 "HgN/A
11:00 AM90 °FPassing clouds.3 mph16%30.09 "HgN/A
Weather by CustomWeather, © 2014

See weather overviewHow to use our weather pages